Regional Weather Roundup
Issued by NWS

Home | Current Version | Previous Version | Text Only | Print | Product List | Glossary Off
Versions: 1 2 3 4 5 6 7 8 9 10 11 12 13 14 15 16 17 18 19 20 21 22 23 24 25 26 27 28 29 30 31 32 33 34 35 36 37 38 39 40 41 42 43 44 45 46 47 48 49 50

993
ASUS45 KBOU 171910
RWRCO

WEATHER ROUNDUP FOR COLORADO
NATIONAL WEATHER SERVICE DENVER/BOULDER CO
1200 PM MST SUN DEC 17 2017

NOTE: "FAIR" INDICATES FEW OR NO CLOUDS BELOW 12000 FEET WITH NO
SIGNIFICANT WEATHER AND/OR OBSTRUCTIONS TO VISIBILITY.

COZ001>005-013-030-031-172000-
...NORTHWEST COLORADO...

CITY           SKY/WX    TMP DP  RH WIND       PRES   REMARKS
CRAIG          CLOUDY    30  21  69 NW6       30.07F WCI  24
HAYDEN         CLOUDY    27  21  78 VRB3      30.07F
MEEKER         FAIR      35  18  49 SW5       30.05F WCI  31
RABBIT EARS PA CLOUDY    16  14  93 W8G17     29.97S FOG     WCI   5
STEAMBOAT SPGS CLOUDY    24  15  68 CALM      30.05S
WALDEN         CLOUDY    27  16  63 S13G23    29.98F WCI  16
$$

COZ006>008-011-172000-
...WEST CENTRAL VALLEYS...

CITY           SKY/WX    TMP DP  RH WIND       PRES   REMARKS
GRAND JUNCTION FAIR      37  11  34 CALM      30.07F
MONTROSE       FAIR      36   8  31 W3        30.08F
EAGLE          FAIR      27  12  53 CALM      30.06F
RIFLE          FAIR      33   8  35 CALM      30.06F
DELTA          FAIR      38   8  28 CALM      30.07F
NUCLA          FAIR      36   1  23 NW3       30.09F
$$

COZ017>023-064>068-172000-
...SOUTHWEST COLORADO...

CITY           SKY/WX    TMP DP  RH WIND       PRES   REMARKS
DURANGO        FAIR      41   7  24 VRB5      30.01F
CORTEZ         FAIR      45   6  20 CALM      30.02F
PAGOSA SPRINGS FAIR      38  -5  16 CALM      30.02F
TELLURIDE      FAIR      37  -2  18 SW5       30.03F
WOLF CREEK PAS CLOUDY    21  -4  33 SW9       30.09S WCI  11
$$

COZ009-010-012-014-032>034-037-058>063-172000-
...CENTRAL COLORADO...

CITY           SKY/WX    TMP DP  RH WIND       PRES   REMARKS
ASPEN          FAIR      35   7  31 N7        29.99F WCI  29
BUENA VISTA    FAIR      35   6  28 CALM      29.95F
COPPER MTN     NOT AVBL
BERTHOUD PASS  FAIR      14   3  62 W24G35    29.94F WCI  -5
COTTONWOOD PAS FAIR      36   0  21 W5        29.97F
GUNNISON       FAIR      31   9  39 SE3       30.03F
KREMMLING      FAIR      30  14  51 CALM      30.04F
LEADVILLE      FAIR      31  -1  25 NW8       29.96F WCI  23
MONARCH PASS   FAIR      19   0  42 W26G33    30.10F WCI   1
SALIDA         FAIR      46   3  17 SW15G21   30.02F
SUNLIGHT       FAIR      27   0  31 SW7       30.04F WCI  19
WILKERSON PASS FAIR      25   0  33 SW17G26   29.97F WCI  11
$$

COZ069>075-172000-
...SAN LUIS VALLEY/SANGRE DE CRISTO MOUNTAINS...

CITY           SKY/WX    TMP DP  RH WIND       PRES   REMARKS
ALAMOSA        FAIR      37  11  34 N5        29.98F
DEL NORTE      FAIR      32  13  45 E5        30.01F WCI  28
LA VETA PASS   FAIR      34  10  37 SW16G25     N/A  WCI  23
SAGUACHE       FAIR      37  10  32 SE7       30.00F
$$

COZ035-036-038>040-172000-
...NORTHERN COLORADO FRONT RANGE...

CITY           SKY/WX    TMP DP  RH WIND       PRES   REMARKS
DENVER INTL AP PTSUNNY   36  23  59 SW10      29.94F
DMNS CITY PARK NOT AVBL
AURORA         PTSUNNY   35  26  70 SW7       29.94F WCI  29
FRONT RANGE AP PTSUNNY   36  27  69 SE6       29.95F
ERIE MUNI ARPT CLOUDY    35  27  72 S5        30.01F WCI  31
BOULDER MUN AP CLOUDY    36  28  75 CALM      29.94F
CENTENNIAL     FAIR      34  25  69 VRB3      29.93F
BROOMFIELD     PTSUNNY   36  27  69 S10       29.93F
FORT COLLINS   CLOUDY    36  25  64 S9        29.96F
LONGMONT       CLOUDY    38  28  68 SW5       29.97F
$$

COZ041-046-047-076>085-087-088-172000-
...PIKES PEAK/PALMER DIVIDE AND SOUTHERN FOOTHILLS...

CITY           SKY/WX    TMP DP  RH WIND       PRES   REMARKS
COLO. SPRINGS  CLOUDY    28  22  78 S3        29.97F
A. F. ACADEMY  CLOUDY    28  21  77 S3        29.94F
SCHRIEVER AFB  CLOUDY    27  23  83 NW3       29.96F
CHEYENNE MTN   CLOUDY    25  22  91 CALM      29.88F
ELLICOTT         N/A    N/A N/A N/A NW5       29.95F
FALCON         CLOUDY    27  24  88 SW3       29.95F
FORT CARSON    CLOUDY    31  22  70 NE3       29.95F
LIMON          PTSUNNY   32  24  72 W7        29.96F WCI  26
MONUMENT HILL  FAIR      30  21  69 CALM      29.94F
CANON CITY     FAIR      34  27  75 S3        29.97F
WALSENBURG     FAIR      36  25  64 CALM      29.96F
TRINIDAD       FAIR      32  24  72 VRB3      29.96F
$$

COZ042>045-048>051-090-091-172000-
...NORTHEAST COLORADO...

CITY           SKY/WX    TMP DP  RH WIND       PRES   REMARKS
GREELEY ARPT   CLOUDY    37  27  67 SW8       29.97F
AKRON          CLOUDY    34  28  79 W6        29.96F WCI  29
BURLINGTON     CLOUDY    35  26  69 NW14      29.99F WCI  26
WRAY           CLOUDY    41  28  60 NW3       29.99F
YUMA           CLOUDY    34  27  75 NW8       29.98F WCI  27
STERLING       PTSUNNY   36  30  80 W7        29.96F
HOLYOKE        PTSUNNY   41  30  65 W7        29.99F
FORT MORGAN    PTSUNNY   37  29  72 W3        29.98F
$$

COZ086-089-092>099-172000-
...SOUTHEAST COLORADO...

CITY           SKY/WX    TMP DP  RH WIND       PRES   REMARKS
PUEBLO         CLOUDY    35  25  66 W5        30.00F WCI  31
LA JUNTA       CLOUDY    38  26  62 CALM      30.01F
LAMAR          CLOUDY    40  26  57 N7        30.00F
SPRINGFIELD      N/A     39  27  62 N13       30.00S
$$




USA.gov is the U.S. government's official web portal to all federal, state and local government web resources and services.